Home   Weather   Bruck an der Leitha   Past weeks
Flag for Austria

Past Weather in Bruck an der Leitha, Lower Austria, Austria — Yesterday and Last 2 Weeks

Now
65 °F

Partly sunny.


Feels Like: 65 °F
Forecast: 63 / 47 °F
Wind: 6 mph from Southeast

Location: Wien / Schwechat-Flughafen

Current Time: Oct 17, 2019 at 6:04:24 pm

Latest Report: Oct 17, 2019 at 4:00 pm


Visibility: 17 mi

Pressure: 30.01 "Hg

Humidity: 65%

Dew Point: 53 °F

Location of Bruck an der LeithaLocation

Past Weather in Bruck an der Leitha — Graph

°F

Bruck an der Leitha Temperature Yesterday

Maximum temperature yesterday: 64 °F (at 4:00 pm)
Minimum temperature yesterday: 48 °F (at 10:00 pm)
Average temperature yesterday: 57 °F

High & Low Weather Summary for the Past Weeks

 TemperatureHumidityPressure
High72 °F (Oct 15, 4:00 pm)100% (Oct 13, 10:00 am)30.26 "Hg (Oct 13, 10:00 am)
Low33 °F (Oct 8, 5:00 am)37% (Oct 11, 3:00 pm)29.70 "Hg (Oct 2, 4:00 pm)
Average53 °F76%30.01 "Hg
* Reported Oct 2 3:00 pm — Oct 17 3:00 pm, Bruck an der Leitha. Weather by CustomWeather, © 2019

Note: Actual official high and low records may vary slightly from our data, if they occured in-between our weather recording intervals... More about our weather records

Advertising

Bruck an der Leitha Weather History for the Previous 24 Hours

Scroll right to see more
 ConditionsComfort  
Time TempWeatherWind HumidityBarometerVisibility
3:00 pm
Thu, Oct 17
65 °FPartly sunny.6 mph64%30.02 "Hg7 mi
2:00 pm65 °FPartly sunny.7 mph65%30.04 "Hg16 mi
1:00 pm62 °FScattered clouds.6 mph67%30.06 "Hg14 mi
12:00 pm54 °FLow clouds.3 mph88%30.09 "Hg14 mi
11:00 am50 °FLow clouds.6 mph94%30.10 "Hg9 mi
10:00 am47 °FLow clouds.3 mph97%30.10 "Hg1 mi
9:00 am46 °FLight rain. Low clouds.5 mph97%30.09 "Hg1 mi
8:00 am45 °FLow clouds.3 mph98%30.08 "Hg1 mi
7:00 am43 °FPassing clouds.2 mph97%30.07 "Hg2 mi
6:00 am44 °FClear.3 mph95%30.07 "Hg1 mi
5:00 am43 °FClear.3 mph96%30.07 "Hg1 mi
4:00 am44 °FClear.3 mph96%30.07 "Hg4 mi
3:00 am45 °FClear.2 mph94%30.08 "Hg13 mi
2:00 am44 °FClear.1 mph90%30.09 "Hg22 mi
1:00 am46 °FClear.1 mph86%30.09 "Hg28 mi
12:00 am49 °FClear.2 mph86%30.09 "Hg22 mi
11:00 pm
Wed, Oct 16
49 °FClear.3 mph85%30.09 "Hg25 mi
10:00 pm48 °FClear.3 mph89%30.09 "Hg28 mi
9:00 pm50 °FClear.5 mph78%30.09 "Hg28 mi
8:00 pm53 °FClear.3 mph67%30.07 "Hg37 mi
7:00 pm54 °FPassing clouds.2 mph63%30.06 "Hg37 mi
6:00 pm59 °FPassing clouds.5 mph55%30.04 "Hg40 mi
Weather by CustomWeather, © 2019

See weather overview